SCP
1 1 1 1 1 1 0 0 0 0 0 0 0 0 0 0 0 0 0 0 0 0 0 0 0 0 0 0 0 0 0 0 0 0 1 1 1 1
1 1 1 1 1 1 1 1 1 0 0 0 0 0 0 0 0 0 0 0 0 0 0 0 0 0 0 0 0 0 0 0 0 0 0 1 1 1
1 1 1 1 1 1 1 1 1 1 0 0 0 1 1 0 0 0 0 0 0 0 0 0 0 0 0 0 0 0 0 0 0 0 0 0 0 0
1 1 1 1 1 1 1 1 1 1 1 0 1 1 1 1 1 0 0 0 0 0 0 0 0 0 0 0 0 0 0 0 0 0 0 0 0 0
1 1 1 1 1 1 2 2 2 1 1 1 1 1 1 1 0 0 0 0 0 0 0 0 0 0 0 0 0 0 0 0 0 0 0 0 0 0
0 0 0 1 1 1 1 1 1 1 1 1 1 1 1 1 0 0 0 0 0 0 0 0 0 0 0 0 0 0 0 0 0 0 0 0 0 0
1 1 1 0 0 1 1 1 1 1 1 1 1 1 0 0 0 0 0 0 0 0 0 0 0 0 0 0 0 0 0 0 0 0 0 0 0 0
2 2 1 0 0 0 0 0 0 1 1 1 1 1 0 0 0 0 0 0 0 0 0 0 0 0 0 0 0 0 0 0 0 0 0 0 0 0
2 2 1 0 0 0 0 0 0 0 0 1 1 1 0 0 0 0 0 0 0 0 0 0 0 0 0 0 0 0 0 0 0 0 0 0 0 0
1 1 1 0 0 0 0 0 0 0 0 0 0 0 0 0 0 0 0 0 0 0 0 0 0 0 0 0 0 0 0 0 0 0 0 0 0 0
1 1 0 0 0 0 0 0 0 0 0 0 0 0 0 0 0 0 0 0 0 0 0 0 0 0 0 0 0 0 0 0 0 0 0 0 0 0
1 1 0 0 0 0 0 0 0 0 0 0 0 0 0 0 0 0 0 0 0 0 0 0 0 0 0 0 0 0 0 0 0 0 0 0 0 0
1 1 0 0 0 0 0 0 0 0 0 0 0 0 0 0 0 0 0 1 1 1 0 0 0 0 0 0 0 0 0 0 0 0 0 0 0 0
1 0 0 0 0 0 0 0 0 0 0 0 0 0 0 0 0 0 0 1 1 1 0 0 0 0 0 0 0 0 0 0 0 0 0 0 0 0
0 0 0 0 0 0 0 0 0 0 0 0 0 0 0 0 0 0 0 0 0 0 0 0 0 0 0 0 0 0 0 0 0 0 0 0 0 0
0 0 0 0 0 0 0 0 0 0 0 0 0 0 0 0 0 0 0 0 0 0 0 0 0 0 0 0 0 0 0 0 0 0 0 0 0 0
0 0 0 0 0 0 0 0 0 0 0 0 0 0 0 0 0 0 0 0 0 0 0 0 0 0 0 0 0 0 0 0 0 0 0 0 0 0
0 0 0 0 0 0 0 0 0 0 0 0 0 0 0 0 0 0 0 0 0 0 0 0 0 0 0 0 0 0 0 0 0 0 0 0 0 0
0 0 0 0 0 0 0 0 0 0 0 0 0 0 0 0 0 0 0 0 0 0 0 0 0 0 0 0 0 0 0 0 0 0 0 0 0 0
0 0 0 0 0 0 0 0 0 0 0 0 0 0 0 0 0 0 0 0 0 0 0 0 0 0 0 0 0 0 0 0 0 0 0 0 0 0
0 0 0 0 0 0 0 0 0 0 0 0 0 0 0 0 0 0 0 0 0 0 0 0 0 0 0 0 0 0 0 0 0 0 0 0 0 0
0 0 0 0 0 0 0 0 0 0 0 0 0 0 0 0 0 0 0 0 0 0 0 0 0 0 0 0 0 0 0 0 0 0 0 0 0 0
0 0 0 0 0 0 0 0 0 0 0 0 0 0 0 0 0 0 0 0 0 0 0 0 0 0 0 0 0 0 0 0 0 0 0 0 0 0
Wind_Speed
5 5 4 3 4 4 3 4 4 3 4 3 2 2 2 2 3 3 3 5 7 7 7 7 7 7 6 6 6 5 5 5 6 6 6 6 5 5
3 4 4 3 3 3 4 4 4 4 4 2 2 2 2 2 3 3 3 5 6 6 7 7 7 7 7 7 7 7 6 7 7 6 6 5 5 5
3 4 5 4 3 3 3 3 3 3 4 3 1 1 2 3 2 2 2 3 3 6 7 7 8 8 8 7 7 7 7 7 7 7 6 6 6 6
4 4 4 3 4 3 3 4 4 4 4 4 2 2 3 3 3 2 2 2 2 5 6 6 7 7 7 7 7 7 7 7 7 7 7 7 7 7
4 4 4 3 4 3 4 4 3 4 3 4 3 2 1 2 2 2 2 1 2 4 5 6 7 7 7 7 7 7 7 7 7 7 7 6 6 6
3 4 4 4 5 4 4 4 4 4 4 4 3 2 2 2 3 3 2 2 2 2 3 4 6 7 8 8 8 8 7 7 6 6 6 6 6 5
2 3 3 4 4 4 3 3 4 4 3 4 3 3 3 3 4 3 3 2 1 2 3 2 3 3 4 6 7 8 8 7 7 7 7 7 6 6
2 2 2 2 2 3 3 4 4 4 4 4 4 4 5 4 3 4 4 3 3 3 3 3 3 3 3 3 6 7 8 8 8 8 8 8 7 7
1 1 1 1 1 1 1 1 1 2 4 4 5 5 5 5 6 6 5 4 3 3 4 3 3 3 3 3 7 8 8 8 8 9 8 8 7 7
0 1 1 0 1 1 0 1 1 2 2 2 3 3 3 4 6 6 5 3 2 2 3 3 3 3 2 3 7 9 9 9 9 9 9 8 7 6
1 0 1 0 1 1 1 0 1 1 2 2 1 1 3 5 5 4 5 4 3 3 3 3 3 2 2 2 4 8 8 9 9 9 8 8 7 6
0 0 1 1 1 1 1 1 1 1 0 1 2 2 2 4 5 5 5 5 3 3 4 4 3 3 3 2 2 4 5 6 7 8 8 8 7 5
1 1 0 1 1 0 1 1 2 1 1 1 1 1 1 2 2 2 3 4 4 3 4 5 4 3 3 3 2 3 4 4 4 5 6 8 8 6
2 1 1 1 1 1 1 1 1 1 1 1 1 1 1 1 1 1 2 1 1 2 5 6 4 4 4 3 3 3 3 3 4 4 4 6 7 7
1 1 1 1 1 0 0 1 1 1 1 1 1 1 1 1 1 1 1 2 2 2 4 3 4 4 3 3 3 4 3 3 4 4 4 5 5 5
0 1 1 1 1 1 1 1 0 1 1 1 1 0 0 1 1 1 1 2 2 1 2 2 3 5 3 3 3 3 4 4 4 5 4 4 4 5
1 1 1 1 1 1 1 0 0 1 0 0 0 0 0 1 0 1 1 1 2 2 2 2 2 2 2 3 3 4 4 3 3 4 4 4 5 6
2 1 1 1 1 0 0 1 0 0 0 0 1 1 1 1 1 1 1 2 2 2 2 2 3 3 2 1 3 4 4 3 3 4 4 4 4 4
1 0 0 0 0 0 1 1 1 1 1 1 1 1 1 1 1 2 2 2 2 2 2 2 3 3 3 2 3 5 5 4 4 3 4 4 4 4
1 0 1 1 1 1 1 1 1 1 1 1 1 1 1 1 2 2 2 3 2 2 2 2 3 4 4 3 2 2 5 5 4 4 3 3 3 2
0 1 1 1 1 1 1 1 1 1 2 2 2 2 2 2 2 2 2 3 3 3 3 3 3 3 2 2 2 2 2 5 5 4 4 3 3 2
1 1 1 1 1 1 1 1 1 2 2 2 2 2 2 2 3 3 3 3 3 3 3 2 3 3 3 3 3 2 2 2 4 6 6 5 3 4
1 1 1 1 1 1 1 1 2 2 2 2 2 2 2 2 2 2 2 3 3 3 3 2 2 2 2 2 3 2 3 2 2 2 3 6 9 9
Wind_Direction
220 217 217 220 213 214 205 195 197 234 252 219 211 205 199 196 198 200 197 181 184 184 180 176 175 173 172 167 158 153 150 150 145 140 142 146 147 148
216 215 222 224 216 213 214 213 209 214 242 226 215 211 197 192 174 193 196 177 179 174 171 171 169 167 163 159 155 152 150 147 146 149 152 152 150 148
222 217 227 223 219 215 207 207 209 205 233 252 218 204 196 193 180 187 190 188 171 165 170 169 164 160 156 156 156 155 156 158 156 155 152 150 149 148
230 226 234 228 224 223 215 217 215 208 213 235 232 212 208 189 178 180 181 167 163 153 157 157 156 155 154 155 155 154 154 154 152 153 154 154 154 153
221 224 234 227 236 231 226 226 222 218 211 212 226 206 194 175 163 165 154 148 152 144 145 152 156 156 155 153 151 150 148 149 151 151 151 151 152 153
222 226 232 227 233 234 232 226 220 216 210 209 212 196 189 178 171 176 174 168 167 156 144 148 153 155 152 148 150 149 146 148 148 146 144 143 143 143
242 242 244 243 244 238 238 226 211 212 207 211 210 197 195 186 195 183 189 168 169 167 153 161 160 162 163 162 162 158 154 153 152 147 141 139 139 136
246 265 271 260 263 256 251 237 218 211 211 210 214 211 211 200 186 182 179 177 198 183 176 187 174 176 180 178 168 165 163 158 153 148 144 142 140 136
241 265 294 334 20 359 354 353 277 244 222 218 219 219 207 196 184 189 193 194 199 169 168 185 176 188 186 176 168 168 167 163 157 151 147 145 142 140
258 220 209 307 31 49 47 28 3 344 296 244 234 229 209 187 189 191 184 163 111 132 162 176 176 188 179 176 174 171 168 165 160 157 154 153 154 155
360 61 129 114 25 79 115 110 353 350 29 46 44 138 158 160 158 152 157 164 178 181 180 173 162 161 163 182 176 173 170 169 168 167 167 168 169 170
314 76 95 90 47 79 161 200 250 288 4 52 56 64 122 149 158 174 175 178 171 182 178 170 158 155 162 175 173 170 169 173 175 176 177 177 176 179
223 245 176 109 89 76 218 236 247 230 167 124 98 92 103 128 152 167 179 180 182 190 170 168 163 165 161 153 165 176 177 178 180 183 186 184 183 185
224 227 208 169 165 183 206 219 177 146 141 131 125 127 137 154 158 161 163 165 175 173 165 167 163 168 161 160 167 170 180 183 184 189 191 188 193 198
234 206 194 168 149 148 118 121 131 138 155 174 190 208 200 168 137 122 113 113 92 101 141 165 160 160 169 171 164 163 170 185 191 193 193 197 199 195
40 89 99 105 96 73 50 78 114 164 182 208 229 247 139 141 147 147 150 147 128 107 106 137 159 159 164 162 166 170 172 178 186 195 197 203 208 209
140 102 80 85 71 37 25 43 76 111 136 175 169 158 158 149 146 140 147 147 151 153 148 117 109 116 135 154 169 181 177 185 187 178 185 205 215 214
133 150 184 199 220 251 273 308 322 322 242 192 187 193 204 203 186 161 159 171 172 175 172 157 143 136 137 179 199 192 189 188 180 177 186 204 221 216
117 126 231 230 239 246 263 262 270 281 266 225 218 219 218 214 202 193 185 186 192 189 182 169 170 173 185 201 192 197 192 179 170 177 192 203 220 222
36 317 294 296 285 267 263 264 261 252 237 232 231 230 221 215 215 208 201 202 202 194 185 182 189 193 203 203 184 185 193 187 183 188 193 201 225 238
307 294 293 288 284 273 268 266 261 255 253 243 234 233 228 222 224 220 206 199 205 203 206 208 208 186 158 142 163 182 186 194 192 192 188 196 206 210
276 279 290 293 289 276 269 264 259 257 255 250 242 231 224 226 228 222 210 200 206 207 209 190 145 154 171 190 199 196 188 180 199 207 210 203 203 214
265 267 273 277 277 277 269 262 261 264 259 257 246 236 225 223 222 215 210 209 207 199 191 176 161 163 177 190 196 200 199 197 192 200 220 223 226 241